Time,TemperatureF,DewpointF,PressureIn,WindDirection,WindDirectionDegrees,WindSpeedMPH,WindSpeedGustMPH,Humidity,HourlyPrecipIn,Conditions,Clouds,dailyrainin,SoftwareType,DateUTC
2013-09-20 00:07:00,60.8,46.8,29.79,WNW,292,0.0,0.0,60,0.00,,,-99.99,Weather View 32 v60,2013-09-20 07:07:00,
2013-09-20 00:19:00,60.4,47.3,29.79,WNW,292,0.0,0.0,62,0.00,,,-99.99,Weather View 32 v60,2013-09-20 07:19:00,
2013-09-20 00:29:00,60.1,47.8,29.79,WNW,292,0.0,0.0,64,0.00,,,-99.99,Weather View 32 v60,2013-09-20 07:29:00,
2013-09-20 00:39:00,59.5,47.7,29.79,WNW,292,0.0,0.0,65,0.00,,,-99.99,Weather View 32 v60,2013-09-20 07:39:00,
2013-09-20 00:49:00,59.4,48.0,29.79,WNW,292,0.0,0.0,66,0.00,,,-99.99,Weather View 32 v60,2013-09-20 07:49:00,
2013-09-20 00:59:00,58.8,47.5,29.79,WNW,292,0.0,0.0,66,0.00,,,-99.99,Weather View 32 v60,2013-09-20 07:59:00,
2013-09-20 01:07:00,58.8,47.5,29.79,WNW,292,0.0,0.0,66,0.00,,,-99.99,Weather View 32 v60,2013-09-20 08:07:00,
2013-09-20 01:19:00,58.5,47.9,29.79,WNW,292,0.0,0.0,68,0.00,,,-99.99,Weather View 32 v60,2013-09-20 08:19:00,
2013-09-20 01:29:00,58.3,48.1,29.79,WNW,292,0.0,0.0,69,0.00,,,-99.99,Weather View 32 v60,2013-09-20 08:29:00,
2013-09-20 01:39:00,58.1,48.3,29.79,WNW,292,0.0,0.0,70,0.00,,,-99.99,Weather View 32 v60,2013-09-20 08:39:00,
2013-09-20 01:49:00,57.9,48.2,29.79,North,351,0.0,4.0,70,0.00,,,-99.99,Weather View 32 v60,2013-09-20 08:49:00,
2013-09-20 01:59:00,58.3,48.1,29.79,SSE,148,0.0,4.0,69,0.00,,,-99.99,Weather View 32 v60,2013-09-20 08:59:00,
2013-09-20 02:08:00,58.3,48.1,29.79,SSE,148,0.0,4.0,69,0.00,,,-99.99,Weather View 32 v60,2013-09-20 09:08:00,
2013-09-20 02:19:00,57.7,47.2,29.79,SSE,151,0.0,4.0,68,0.00,,,-99.99,Weather View 32 v60,2013-09-20 09:19:00,
2013-09-20 02:29:00,57.2,46.7,29.79,South,173,0.0,4.0,68,0.00,,,-99.99,Weather View 32 v60,2013-09-20 09:29:00,
2013-09-20 02:39:00,56.7,46.6,29.79,South,175,0.0,4.0,69,0.00,,,-99.99,Weather View 32 v60,2013-09-20 09:39:00,
2013-09-20 02:49:00,56.1,46.8,29.79,South,175,0.0,0.0,71,0.00,,,-99.99,Weather View 32 v60,2013-09-20 09:49:00,
2013-09-20 02:59:00,55.8,47.2,29.79,South,175,0.0,0.0,73,0.00,,,-99.99,Weather View 32 v60,2013-09-20 09:59:00,
2013-09-20 03:08:00,55.8,47.2,29.79,South,175,0.0,0.0,73,0.00,,,-99.99,Weather View 32 v60,2013-09-20 10:08:00,
2013-09-20 03:19:00,55.4,46.5,29.79,South,175,0.0,0.0,72,0.00,,,-99.99,Weather View 32 v60,2013-09-20 10:19:00,
2013-09-20 03:29:00,55.2,46.7,29.79,West,261,0.0,0.0,73,0.00,,,-99.99,Weather View 32 v60,2013-09-20 10:29:00,
2013-09-20 03:39:00,55.9,48.1,29.79,NNW,340,0.0,0.0,75,0.00,,,-99.99,Weather View 32 v60,2013-09-20 10:39:00,
2013-09-20 03:49:00,56.3,48.8,29.79,North,7,0.0,0.0,76,0.00,,,-99.99,Weather View 32 v60,2013-09-20 10:49:00,
2013-09-20 03:59:00,56.1,48.6,29.79,North,7,0.0,0.0,76,0.00,,,-99.99,Weather View 32 v60,2013-09-20 10:59:00,
2013-09-20 04:09:00,56.1,48.6,29.79,North,7,0.0,0.0,76,0.00,,,-99.99,Weather View 32 v60,2013-09-20 11:09:00,
2013-09-20 04:19:00,55.2,47.4,29.79,North,7,0.0,0.0,75,0.00,,,-99.99,Weather View 32 v60,2013-09-20 11:19:00,
2013-09-20 04:29:00,54.7,46.9,29.79,North,7,0.0,0.0,75,0.00,,,-99.99,Weather View 32 v60,2013-09-20 11:29:00,
2013-09-20 04:39:00,54.5,47.4,29.79,North,7,0.0,0.0,77,0.00,,,-99.99,Weather View 32 v60,2013-09-20 11:39:00,
2013-09-20 04:49:00,54.1,47.4,29.79,North,7,0.0,0.0,78,0.00,,,-99.99,Weather View 32 v60,2013-09-20 11:49:00,
2013-09-20 04:59:00,53.8,47.1,29.79,North,7,0.0,0.0,78,0.00,,,-99.99,Weather View 32 v60,2013-09-20 11:59:00,
2013-09-20 05:09:00,53.8,47.1,29.79,North,7,0.0,0.0,78,0.00,,,-99.99,Weather View 32 v60,2013-09-20 12:09:00,
2013-09-20 05:19:00,53.4,47.7,29.81,North,7,0.0,0.0,81,0.00,,,-99.99,Weather View 32 v60,2013-09-20 12:19:00,
2013-09-20 05:29:00,53.6,48.2,29.81,North,7,0.0,0.0,82,0.00,,,-99.99,Weather View 32 v60,2013-09-20 12:29:00,
2013-09-20 05:39:00,53.2,47.9,29.81,North,7,0.0,0.0,82,0.00,,,-99.99,Weather View 32 v60,2013-09-20 12:39:00,
2013-09-20 05:49:00,53.2,48.5,29.81,NE,55,0.0,0.0,84,0.00,,,-99.99,Weather View 32 v60,2013-09-20 12:49:00,
2013-09-20 05:59:00,53.2,48.5,29.81,NE,55,0.0,0.0,84,0.00,,,-99.99,Weather View 32 v60,2013-09-20 12:59:00,
2013-09-20 06:10:00,52.9,48.2,29.81,NE,50,0.0,0.0,84,0.00,,,-99.99,Weather View 32 v60,2013-09-20 13:10:00,
2013-09-20 06:19:00,52.9,48.2,29.81,NE,50,0.0,0.0,84,0.00,,,-99.99,Weather View 32 v60,2013-09-20 13:19:00,
2013-09-20 06:29:00,52.9,48.5,29.81,NE,50,0.0,0.0,85,0.00,,,-99.99,Weather View 32 v60,2013-09-20 13:29:00,
2013-09-20 06:39:00,52.9,48.5,29.81,NE,56,0.0,0.0,85,0.00,,,-99.99,Weather View 32 v60,2013-09-20 13:39:00,
2013-09-20 06:49:00,52.5,48.1,29.81,NE,56,0.0,0.0,85,0.00,,,-99.99,Weather View 32 v60,2013-09-20 13:49:00,
2013-09-20 06:59:00,52.3,48.3,29.81,NE,56,0.0,0.0,86,0.00,,,-99.99,Weather View 32 v60,2013-09-20 13:59:00,
2013-09-20 07:09:00,52.3,48.6,29.81,NE,56,0.0,0.0,87,0.00,,,-99.99,Weather View 32 v60,2013-09-20 14:09:00,
2013-09-20 07:19:00,52.9,49.1,29.81,NE,56,0.0,0.0,87,0.00,,,-99.99,Weather View 32 v60,2013-09-20 14:19:00,
2013-09-20 07:29:00,53.2,49.8,29.81,East,83,0.0,0.0,88,0.00,,,-99.99,Weather View 32 v60,2013-09-20 14:29:00,
2013-09-20 07:39:00,54.3,50.8,29.81,NE,53,0.0,0.0,88,0.00,,,-99.99,Weather View 32 v60,2013-09-20 14:39:00,
2013-09-20 07:49:00,55.8,52.3,29.84,NNE,31,0.0,0.0,88,0.00,,,-99.99,Weather View 32 v60,2013-09-20 14:49:00,
2013-09-20 07:59:00,57.0,52.2,29.84,NE,37,0.0,0.0,84,0.00,,,-99.99,Weather View 32 v60,2013-09-20 14:59:00,
2013-09-20 08:09:00,57.9,52.1,29.84,North,10,0.0,0.0,81,0.00,,,-99.99,Weather View 32 v60,2013-09-20 15:09:00,
2013-09-20 08:19:00,58.6,51.4,29.84,NE,36,0.0,0.0,77,0.00,,,-99.99,Weather View 32 v60,2013-09-20 15:19:00,
2013-09-20 08:29:00,59.5,50.9,29.84,NNE,12,0.0,0.0,73,0.00,,,-99.99,Weather View 32 v60,2013-09-20 15:29:00,
2013-09-20 08:39:00,60.4,50.2,29.84,NE,34,0.0,0.0,69,0.00,,,-99.99,Weather View 32 v60,2013-09-20 15:39:00,
2013-09-20 08:49:00,61.5,51.2,29.84,ESE,104,0.0,0.0,69,0.00,,,-99.99,Weather View 32 v60,2013-09-20 15:49:00,
2013-09-20 08:59:00,62.6,52.3,29.84,SSE,159,0.0,0.0,69,0.00,,,-99.99,Weather View 32 v60,2013-09-20 15:59:00,
2013-09-20 09:09:00,63.5,51.9,29.84,SSE,167,0.0,0.0,66,0.00,,,-99.99,Weather View 32 v60,2013-09-20 16:09:00,
2013-09-20 09:19:00,64.4,51.5,29.84,NW,326,0.0,0.0,63,0.00,,,-99.99,Weather View 32 v60,2013-09-20 16:19:00,
2013-09-20 09:29:00,65.1,51.3,29.84,NNE,22,0.0,0.0,61,0.00,,,-99.99,Weather View 32 v60,2013-09-20 16:29:00,
2013-09-20 09:40:00,66.4,52.9,29.84,West,274,0.0,4.0,62,0.00,,,-99.99,Weather View 32 v60,2013-09-20 16:40:00,
2013-09-20 09:49:00,67.3,52.4,29.84,SW,231,3.0,7.0,59,0.00,,,-99.99,Weather View 32 v60,2013-09-20 16:49:00,
2013-09-20 09:59:00,68.0,54.0,29.84,WNW,286,3.0,8.0,61,0.00,,,-99.99,Weather View 32 v60,2013-09-20 16:59:00,
2013-09-20 10:09:00,68.7,53.3,29.84,SW,222,8.0,11.0,58,0.00,,,-99.99,Weather View 32 v60,2013-09-20 17:09:00,
2013-09-20 10:19:00,68.9,53.5,29.87,WSW,243,0.0,12.0,58,0.00,,,-99.99,Weather View 32 v60,2013-09-20 17:19:00,
2013-09-20 10:29:00,68.0,54.0,29.87,SW,215,0.0,13.0,61,0.00,,,-99.99,Weather View 32 v60,2013-09-20 17:29:00,
2013-09-20 10:40:00,67.1,55.3,29.87,West,278,5.0,13.0,66,0.00,,,-99.99,Weather View 32 v60,2013-09-20 17:40:00,
2013-09-20 10:49:00,66.7,55.4,29.87,South,186,0.0,13.0,67,0.00,,,-99.99,Weather View 32 v60,2013-09-20 17:49:00,
2013-09-20 10:59:00,66.4,55.5,29.87,West,270,0.0,13.0,68,0.00,,,-99.99,Weather View 32 v60,2013-09-20 17:59:00,
2013-09-20 11:09:00,67.6,56.3,29.87,WSW,239,0.0,13.0,67,0.00,,,-99.99,Weather View 32 v60,2013-09-20 18:09:00,
2013-09-20 11:19:00,68.7,56.0,29.87,SW,229,0.0,13.0,64,0.00,,,-99.99,Weather View 32 v60,2013-09-20 18:19:00,
2013-09-20 11:29:00,68.5,55.4,29.90,West,273,4.0,13.0,63,0.00,,,-99.99,Weather View 32 v60,2013-09-20 18:29:00,
2013-09-20 11:39:00,69.8,55.7,29.90,SSW,198,0.0,13.0,61,0.00,,,-99.99,Weather View 32 v60,2013-09-20 18:39:00,
2013-09-20 11:49:00,71.8,55.2,29.87,WSW,241,0.0,13.0,56,0.00,,,-99.99,Weather View 32 v60,2013-09-20 18:49:00,
2013-09-20 11:59:00,72.0,55.4,29.87,SSW,197,5.0,11.0,56,0.00,,,-99.99,Weather View 32 v60,2013-09-20 18:59:00,
2013-09-20 12:09:00,71.8,55.2,29.87,West,263,0.0,11.0,56,0.00,,,-99.99,Weather View 32 v60,2013-09-20 19:09:00,
2013-09-20 12:19:00,71.8,54.7,29.87,West,268,4.0,11.0,55,0.00,,,-99.99,Weather View 32 v60,2013-09-20 19:19:00,
2013-09-20 12:29:00,72.1,54.5,29.87,WNW,303,0.0,12.0,54,0.00,,,-99.99,Weather View 32 v60,2013-09-20 19:29:00,
2013-09-20 12:39:00,74.1,53.7,29.87,WSW,250,0.0,12.0,49,0.00,,,-99.99,Weather View 32 v60,2013-09-20 19:39:00,
2013-09-20 12:49:00,74.5,54.0,29.87,SSW,196,0.0,12.0,49,0.00,,,-99.99,Weather View 32 v60,2013-09-20 19:49:00,
2013-09-20 12:59:00,73.6,53.2,29.87,South,173,3.0,12.0,49,0.00,,,-99.99,Weather View 32 v60,2013-09-20 19:59:00,
2013-09-20 13:09:00,73.8,52.2,29.87,SSW,196,5.0,13.0,47,0.00,,,-99.99,Weather View 32 v60,2013-09-20 20:09:00,
2013-09-20 13:19:00,74.8,52.6,29.87,West,266,0.0,13.0,46,0.00,,,-99.99,Weather View 32 v60,2013-09-20 20:19:00,
2013-09-20 13:29:00,75.9,53.0,29.87,ENE,62,0.0,13.0,45,0.00,,,-99.99,Weather View 32 v60,2013-09-20 20:29:00,
2013-09-20 13:39:00,76.1,51.3,29.87,SSW,199,0.0,13.0,42,0.00,,,-99.99,Weather View 32 v60,2013-09-20 20:39:00,
2013-09-20 13:49:00,76.8,51.9,29.87,SSW,199,13.0,13.0,42,0.00,,,-99.99,Weather View 32 v60,2013-09-20 20:49:00,
2013-09-20 13:59:00,76.8,51.3,29.87,SSW,198,3.0,13.0,41,0.00,,,-99.99,Weather View 32 v60,2013-09-20 20:59:00,
2013-09-20 14:09:00,76.5,50.9,29.87,SW,216,6.0,13.0,41,0.00,,,-99.99,Weather View 32 v60,2013-09-20 21:09:00,
2013-09-20 14:19:00,76.8,51.3,29.87,WNW,287,8.0,14.0,41,0.00,,,-99.99,Weather View 32 v60,2013-09-20 21:19:00,
2013-09-20 14:29:00,76.6,51.8,29.84,WSW,255,0.0,14.0,42,0.00,,,-99.99,Weather View 32 v60,2013-09-20 21:29:00,
2013-09-20 14:39:00,77.0,52.1,29.84,WSW,238,12.0,15.0,42,0.00,,,-99.99,Weather View 32 v60,2013-09-20 21:39:00,
2013-09-20 14:49:00,76.8,51.3,29.87,SW,225,5.0,15.0,41,0.00,,,-99.99,Weather View 32 v60,2013-09-20 21:49:00,
2013-09-20 14:59:00,77.7,52.1,29.84,SW,221,4.0,15.0,41,0.00,,,-99.99,Weather View 32 v60,2013-09-20 21:59:00,
2013-09-20 15:09:00,78.4,52.0,29.84,WSW,242,6.0,15.0,40,0.00,,,-99.99,Weather View 32 v60,2013-09-20 22:09:00,
2013-09-20 15:15:00,78.4,52.0,29.84,WSW,242,6.0,15.0,40,0.00,,,-99.99,Weather View 32 v60,2013-09-20 22:15:00,
2013-09-20 15:29:00,76.3,53.3,29.84,West,280,3.0,15.0,45,0.00,,,-99.99,Weather View 32 v60,2013-09-20 22:29:00,
2013-09-20 15:39:00,75.7,53.4,29.84,West,281,0.0,15.0,46,0.00,,,-99.99,Weather View 32 v60,2013-09-20 22:39:00,
2013-09-20 15:49:00,75.4,53.7,29.84,West,266,0.0,14.0,47,0.00,,,-99.99,Weather View 32 v60,2013-09-20 22:49:00,
2013-09-20 15:59:00,74.3,54.4,29.87,WSW,242,3.0,14.0,50,0.00,,,-99.99,Weather View 32 v60,2013-09-20 22:59:00,
2013-09-20 16:09:00,73.4,55.2,29.87,SSW,206,4.0,14.0,53,0.00,,,-99.99,Weather View 32 v60,2013-09-20 23:09:00,
2013-09-20 16:15:00,73.4,55.2,29.87,SSW,206,4.0,14.0,53,0.00,,,-99.99,Weather View 32 v60,2013-09-20 23:15:00,
2013-09-20 16:29:00,75.4,54.8,29.84,WSW,256,0.0,9.0,49,0.00,,,-99.99,Weather View 32 v60,2013-09-20 23:29:00,
2013-09-20 16:39:00,75.9,54.8,29.84,WNW,288,8.0,11.0,48,0.00,,,-99.99,Weather View 32 v60,2013-09-20 23:39:00,
2013-09-20 16:49:00,74.3,54.9,29.84,West,269,4.0,11.0,51,0.00,,,-99.99,Weather View 32 v60,2013-09-20 23:49:00,
2013-09-20 16:59:00,73.2,56.0,29.84,WNW,294,0.0,11.0,55,0.00,,,-99.99,Weather View 32 v60,2013-09-20 23:59:00,
2013-09-20 17:09:00,73.0,55.9,29.84,SW,236,7.0,11.0,55,0.00,,,-99.99,Weather View 32 v60,2013-09-21 00:09:00,
2013-09-20 17:16:00,73.0,55.9,29.84,SW,236,7.0,11.0,55,0.00,,,-99.99,Weather View 32 v60,2013-09-21 00:16:00,
2013-09-20 17:29:00,72.9,55.2,29.84,SW,229,0.0,11.0,54,0.00,,,-99.99,Weather View 32 v60,2013-09-21 00:29:00,
2013-09-20 17:39:00,72.1,55.0,29.84,SW,216,5.0,11.0,55,0.00,,,-99.99,Weather View 32 v60,2013-09-21 00:39:00,
2013-09-20 17:49:00,72.1,55.5,29.84,West,271,0.0,10.0,56,0.00,,,-99.99,Weather View 32 v60,2013-09-21 00:49:00,
2013-09-20 17:59:00,72.0,55.4,29.84,WSW,248,0.0,10.0,56,0.00,,,-99.99,Weather View 32 v60,2013-09-21 00:59:00,
2013-09-20 18:09:00,72.0,55.8,29.84,SSW,212,4.0,10.0,57,0.00,,,-99.99,Weather View 32 v60,2013-09-21 01:09:00,
2013-09-20 18:16:00,72.0,55.8,29.84,SSW,212,4.0,10.0,57,0.00,,,-99.99,Weather View 32 v60,2013-09-21 01:16:00,
2013-09-20 18:29:00,69.8,55.7,29.84,WSW,239,3.0,10.0,61,0.00,,,-99.99,Weather View 32 v60,2013-09-21 01:29:00,
2013-09-20 18:39:00,69.3,55.6,29.84,SW,235,0.0,10.0,62,0.00,,,-99.99,Weather View 32 v60,2013-09-21 01:39:00,
2013-09-20 18:49:00,68.5,55.8,29.84,West,269,0.0,10.0,64,0.00,,,-99.99,Weather View 32 v60,2013-09-21 01:49:00,
2013-09-20 18:59:00,68.0,55.8,29.84,WSW,248,3.0,10.0,65,0.00,,,-99.99,Weather View 32 v60,2013-09-21 01:59:00,
2013-09-20 19:09:00,67.6,55.4,29.84,SW,220,0.0,10.0,65,0.00,,,-99.99,Weather View 32 v60,2013-09-21 02:09:00,
2013-09-20 19:17:00,67.6,55.4,29.84,SW,220,0.0,10.0,65,0.00,,,-99.99,Weather View 32 v60,2013-09-21 02:17:00,
2013-09-20 19:29:00,66.9,56.0,29.84,WSW,240,4.0,9.0,68,0.00,,,-99.99,Weather View 32 v60,2013-09-21 02:29:00,
2013-09-20 19:39:00,66.7,55.8,29.84,West,261,0.0,9.0,68,0.00,,,-99.99,Weather View 32 v60,2013-09-21 02:39:00,
2013-09-20 19:49:00,66.4,55.9,29.84,SSW,206,0.0,9.0,69,0.00,,,-99.99,Weather View 32 v60,2013-09-21 02:49:00,
2013-09-20 19:59:00,66.2,55.7,29.84,WSW,256,0.0,9.0,69,0.00,,,-99.99,Weather View 32 v60,2013-09-21 02:59:00,
2013-09-20 20:09:00,66.0,55.5,29.84,SW,234,0.0,9.0,69,0.00,,,-99.99,Weather View 32 v60,2013-09-21 03:09:00,
2013-09-20 20:17:00,66.0,55.5,29.84,SW,234,0.0,9.0,69,0.00,,,-99.99,Weather View 32 v60,2013-09-21 03:17:00,
2013-09-20 20:29:00,65.7,55.6,29.87,SW,234,4.0,9.0,70,0.00,,,-99.99,Weather View 32 v60,2013-09-21 03:29:00,
2013-09-20 20:39:00,65.7,55.6,29.87,WSW,252,3.0,9.0,70,0.00,,,-99.99,Weather View 32 v60,2013-09-21 03:39:00,
2013-09-20 20:49:00,65.5,55.8,29.87,SSW,203,4.0,9.0,71,0.00,,,-99.99,Weather View 32 v60,2013-09-21 03:49:00,
2013-09-20 20:59:00,65.1,55.8,29.87,SW,221,0.0,9.0,72,0.00,,,-99.99,Weather View 32 v60,2013-09-21 03:59:00,
2013-09-20 21:09:00,65.1,56.2,29.87,SW,214,4.0,9.0,73,0.00,,,-99.99,Weather View 32 v60,2013-09-21 04:09:00,
2013-09-20 21:18:00,65.1,56.2,29.87,SW,214,4.0,9.0,73,0.00,,,-99.99,Weather View 32 v60,2013-09-21 04:18:00,
2013-09-20 21:19:00,64.9,56.1,29.87,West,259,0.0,9.0,73,0.00,,,-99.99,Weather View 32 v60,2013-09-21 04:19:00,
2013-09-20 21:29:00,64.8,56.3,29.87,WSW,257,6.0,9.0,74,0.00,,,-99.99,Weather View 32 v60,2013-09-21 04:29:00,
2013-09-20 21:39:00,64.8,56.3,29.87,South,180,0.0,9.0,74,0.00,,,-99.99,Weather View 32 v60,2013-09-21 04:39:00,
2013-09-20 21:49:00,64.6,56.5,29.87,West,277,0.0,9.0,75,0.00,,,-99.99,Weather View 32 v60,2013-09-21 04:49:00,
2013-09-20 21:59:00,64.4,56.3,29.87,SSW,204,0.0,9.0,75,0.00,,,-99.99,Weather View 32 v60,2013-09-21 04:59:00,
2013-09-20 22:09:00,64.0,56.3,29.87,West,281,0.0,9.0,76,0.00,,,-99.99,Weather View 32 v60,2013-09-21 05:09:00,
2013-09-20 22:18:00,64.0,56.3,29.87,West,281,0.0,9.0,76,0.00,,,-99.99,Weather View 32 v60,2013-09-21 05:18:00,
2013-09-20 22:29:00,63.9,56.8,29.87,SSW,208,0.0,7.0,78,0.00,,,-99.99,Weather View 32 v60,2013-09-21 05:29:00,
2013-09-20 22:39:00,63.5,56.5,29.87,SW,231,0.0,6.0,78,0.00,,,-99.99,Weather View 32 v60,2013-09-21 05:39:00,
2013-09-20 22:50:00,63.3,56.3,29.87,WSW,242,0.0,0.0,78,0.00,,,-99.99,Weather View 32 v60,2013-09-21 05:50:00,
2013-09-20 22:59:00,63.1,56.9,29.87,WSW,239,0.0,0.0,80,0.00,,,-99.99,Weather View 32 v60,2013-09-21 05:59:00,
2013-09-20 23:09:00,63.1,56.9,29.87,WSW,257,0.0,0.0,80,0.00,,,-99.99,Weather View 32 v60,2013-09-21 06:09:00,
2013-09-20 23:19:00,63.1,56.9,29.87,WSW,257,0.0,0.0,80,0.00,,,-99.99,Weather View 32 v60,2013-09-21 06:19:00,
2013-09-20 23:29:00,63.1,56.9,29.87,SW,224,0.0,0.0,80,0.00,,,-99.99,Weather View 32 v60,2013-09-21 06:29:00,
2013-09-20 23:39:00,63.0,56.7,29.87,SSW,197,0.0,0.0,80,0.00,,,-99.99,Weather View 32 v60,2013-09-21 06:39:00,
2013-09-20 23:49:00,63.0,56.3,29.84,West,262,0.0,0.0,79,0.00,,,-99.99,Weather View 32 v60,2013-09-21 06:49:00,
2013-09-20 23:59:00,63.0,56.0,29.84,WSW,246,0.0,0.0,78,0.00,,,-99.99,Weather View 32 v60,2013-09-21 06:59:00,